Погода в Калье

Россия / Свердловская область     60°14′30″N   59°59′15″E
темп.,
°C
ветер,
м/с
пор.,
м/с
влажн.,
%
обл.,
%
осадки,
мм/ч
давл.,
гПа
погр.,
м
8 марта, пн
пн823:00−18сз1198100 0.3 100720
02:00−21зсз119899 0.1 100620
05:00−23зсз119594 0.1 100720
08:00−24сз119696 0.0 100620
11:00−17вюв118894 0.0 1005292
14:00−14юв2284100 0.0 1003605
17:00−14в2391100 0.1 1003450
20:00−17св2498100 0.3 1002130
9 марта, вт
вт923:00−17с2498100 0.6 1001125
02:00−17с3697100 0.4 1000262
05:00−18с3897100 1.0 1000342
08:00−19с3897100 0.3 1001348
11:00−17с3692100 0.4 1003391
14:00−14с2488100 0.0 1005505
17:00−14св2389100 0.1 1008429
20:00−19всв1110096 0.1 101020
10 марта, ср
ср1023:00−20св119998 0.2 101220
02:00−22с11100100 0.1 101320
05:00−25ссз1199100 0.1 101420
08:00−28ссз1196100 0.0 101419
11:00−21ссв128578 0.0 1014319
14:00−17ссв227530 0.0 1013576
17:00−16св238127 0.0 1012655
20:00−24з009553 0.0 101320
11 марта, чт
чт1123:00−26з129348 0.0 101319
02:00−27з22904 0.0 101220
05:00−27з229013 0.0 101220
08:00−24с119197 0.0 101219
11:00−19з128499 0.0 1012279
14:00−14юз1277100 0.0 1012600
17:00−13з2482100 0.0 1011609
20:00−16зюз1294100 0.0 101230
12 марта, пт
пт1223:00−17юз2293100 0.0 101237
02:00−18юз229382 0.0 101325
05:00−19юз229355 0.0 101323
08:00−19зюз229295 0.0 101525
11:00−12зюз248190 0.0 1016472
14:00−8зсз2572100 0.0 1017759
17:00−9з3676100 0.0 1018784
20:00−14юз228898 0.0 101928